Regional Weather Roundup
Issued by NWS Newport/Morehead, NC

Current Version | Previous Version | Graphics & Text | Print | Product List | Glossary On
Versions: 1 2 3 4 5 6 7 8 9 10 11 12 13 14 15 16 17 18 19 20 21 22 23 24 25 26 27 28 29 30 31 32 33 34 35 36 37 38 39 40 41 42 43 44 45 46 47 48 49 50
000 ASUS42 KMHX 221325 RWRMHX WEATHER ROUNDUP FOR EASTERN NORTH CAROLINA NATIONAL WEATHER SERVICE NEWPORT/MOREHEAD CITY NC 900 AM EDT FRI SEP 22 2017 NOTE: "FAIR" INDICATES FEW OR NO CLOUDS BELOW 12,000 FEET WITH NO SIGNIFICANT WEATHER AND/OR OBSTRUCTIONS TO VISIBILITY NCZ015>017-031-032-045>047-102-103-221400- NORTH COAST CITY SKY/WX TMP DP RH WIND PRES REMARKS EDENTON SUNNY 77 71 81 CALM 30.07S ELIZABETH CITY SUNNY 73 70 90 W6 30.06S KITTY HAWK SUNNY 73 66 78 CALM 30.05S MANTEO SUNNY 74 68 80 NW3 30.07R $$ NCZ045>047-081-094-103-104-221400- CENTRAL COAST CITY SKY/WX TMP DP RH WIND PRES REMARKS FRISCO SUNNY 79 71 76 VRB3 30.06R $$ NCZ095-097-098-100-101-221400- SOUTHERN COAST CITY SKY/WX TMP DP RH WIND PRES REMARKS BEAUFORT SUNNY 77 72 84 CALM 30.06R CEDAR ISLAND NOT AVBL JACKSONVILLE SUNNY 73 71 93 N3 30.06S PINEY ISLAND N/A N/A N/A N/A CALM 30.05S WILMINGTON SUNNY 74 69 85 N6 30.06S $$ NCZ011>013-027>030-043-044-078>080-089-090>093-098-221400- COASTAL PLAIN CITY SKY/WX TMP DP RH WIND PRES REMARKS AHOSKIE SUNNY 71 69 93 CALM 30.08R CLINTON SUNNY 74 69 84 N3 30.08S ELIZABETHTOWN NOT AVBL GOLDSBORO SUNNY 70 70 100 CALM 30.06S GREENVILLE SUNNY 70 70 100 CALM 30.08S HAVELOCK SUNNY 76 72 87 CALM 30.07S KENANSVILLE SUNNY 72 68 88 CALM 30.08S KINSTON SUNNY 70 70 100 CALM 30.08S NEW BERN SUNNY 74 71 91 CALM 30.08S FOG RICHLANDS PTSUNNY 73 70 88 NE3 30.08R ROCKY MOUNT FOG 68 68 100 CALM 30.08S VSB<1/4 WASHINGTON SUNNY 74 71 87 CALM 30.07S WHITEVILLE SUNNY 70 67 92 N3 30.07R $$ AMZ130-135-150-152-154-156-158-170-250-252-270-ANZ085-086-088-633-658-670-221400- MARINE OBSERVATIONS STATION/POSITION TIME TEMP WIND PRES WAVE SWELL AIR SEA DIR/SP/G HT/PER HT/PER (UTC) (F) (DEG/KT/KT) (MB) (FT/S) (FT/S) CHESAPEAKE LIGHT NOT AVBL 64 E VA BEACH 1250 71 69 280/ 10/ 14 1017.4 8/11 8/11 DUCK 1300 73 75 270/ 7/ 9 1017.5 2 E DUCK 1300 75 N/A 5/11 3/11 OREGON INLET 1300 74 77 290/ 5/ 7 1017.6 13E OREGON INLT 1248 74 N/A 6/12 7/12 HATTERAS CG 1300 76 78 340/ 3/ 4 1017.8 DIAMOND BUOY 1250 75 76 340/ 6/ 6 1017.6 5/11 5/11 CAPE LOOKOUT 1300 78 60/ 3/ 4 1017.4 BEAUFORT LAB 1300 77 76 10/ 2/ 2 1017.2 30 SE NEW RVR IN 1308 79 60/ 6/ 8 1017.3 30 SE NEW RVR IN NOT AVBL 27 SE WRIGHTSVLE 1308 81 80 70/ 6/ 8 1017.3 5 SE WRIGHTSVLE 1308 76 78 50/ 10/ 14 1017.3 225 S CAPE HAT 1250 78 80 30/ 4/ 4 1016.8 5/11 5/11 41 SE CHARLESTON 1300 80 82 30/ 10/ 12 1016.6 $$

USA.gov is the U.S. government's official web portal to all federal, state and local government web resources and services.